{"data":{"norad_id":58271,"intl_designator":"2023-174R","name":"FLOCK 4Q-16","alt_names":[],"object_type":"PAYLOAD","status":"ACTIVE","operator":null,"country":"US","launch_date":"2023-11-11","launch_site_code":"AFWTR","launch_vehicle":null,"mission":null,"orbit_class":"UNKNOWN","rcs_meters":null,"size_class":null,"mass_kg":null,"dimensions":null,"purposes":["earth_obs"],"wikipedia_slug":null,"has_3d_model":false,"image_url":null,"decayed_at":null,"tle_current":{"epoch":"2026-05-24T12:28:52.957632Z","epoch_age_seconds":126589,"freshness":"FRESH","line1":"1 58271U 23174R   26144.52005738  .00023952  00000+0  45785-3 0  9999","line2":"2 58271  97.3825 232.1005 0005341 233.8889 126.1868 15.48080680141914","mean_motion":15.4808068,"eccentricity":0.0005341,"inclination_deg":97.3825,"raan_deg":232.1005,"arg_perigee_deg":233.8889,"mean_anomaly_deg":126.1868,"bstar":0.00045785,"rev_number":14191,"period_min":93.018407800296,"perigee_km":418.70898282526,"apogee_km":425.97325355111,"semimajor_km":6800.4781181882,"source":"CELESTRAK","updated_at":"2026-05-25T13:38:13.297669Z"}}}